This is the latest recevied weather packets stored in our database for station/object DL9RAN-11. If no packets are shown the sender has not sent any weather packets the latest 10 day(s).
| Time | Temp. | Humidity | Pressure | Rain* | Wind** | Luminosity | Snow |
|---|---|---|---|---|---|---|---|
| 1787412606 | 19.44° C | 65% | 1022.3 hPa | - | - | - | - |
| 1787412306 | 19.44° C | 66% | 1022.3 hPa | - | - | - | - |
| 1787411877 | 18.89° C | 65% | 1022.1 hPa | - | - | - | - |
| 1787411497 | 18.89° C | 66% | 1022 hPa | - | - | - | - |
| 1787409538 | 19.44° C | 66% | 1022 hPa | - | - | - | - |
| 1787409237 | 19.44° C | 65% | 1022 hPa | - | - | - | - |
| 1787408604 | 19.44° C | 64% | 1022 hPa | - | - | - | - |
| 1787408302 | 20° C | 64% | 1021.7 hPa | - | - | - | - |
| 1787407863 | 20° C | 64% | 1021.7 hPa | - | - | - | - |
| 1787407562 | 20° C | 64% | 1021.7 hPa | - | - | - | - |
| 1787406462 | 20° C | 65% | 1021.8 hPa | - | - | - | - |
| 1787406162 | 20° C | 65% | 1021.8 hPa | - | - | - | - |
| 1787405862 | 20.56° C | 65% | 1021.8 hPa | - | - | - | - |
| 1787405561 | 20.56° C | 63% | 1021.8 hPa | - | - | - | - |
| 1787404060 | 20.56° C | 64% | 1021.3 hPa | - | - | - | - |
| 1787403427 | 20.56° C | 64% | 1021.3 hPa | - | - | - | - |
| 1787402520 | 21.11° C | 63% | 1021.1 hPa | - | - | - | - |
| 1787402012 | 21.11° C | 63% | 1021.1 hPa | - | - | - | - |
| 1787401310 | 21.11° C | 64% | 1021.1 hPa | - | - | - | - |
| 1787401008 | 21.11° C | 64% | 1021.1 hPa | - | - | - | - |
| 1787400706 | 21.11° C | 67% | 1021.2 hPa | - | - | - | - |
| 1787400337 | 21.11° C | 67% | 1021 hPa | - | - | - | - |
| 1787400037 | 20.56° C | 66% | 1021 hPa | - | - | - | - |
| 1787399599 | 20.56° C | 68% | 1021 hPa | - | - | - | - |
| 1787399299 | 20.56° C | 68% | 1021.2 hPa | - | - | - | - |
* Rain since midnight (hover to see other rain measurements)
** Current wind speed in m/s (hover to see current wind gust speed)